Tracking 32954 objects as of 19-Jan-2026
HD Live streaming from Space Station
objects crossing your sky now

STARLINK-5697

Track STARLINK-5697 now!
10-day predictions
STARLINK-5697 is classified as:


NORAD ID: 55589
Int'l Code: 2023-020W
Perigee: 565.7 km
Apogee: 566.7 km
Inclination: 43.0 °
Period: 95.8 minutes
Semi major axis: 6937 km
RCS: Unknown
Launch date: February 12, 2023
Source: United States (US)
Launch site: AIR FORCE EASTERN TEST RANGE (AFETR)
Your satellite tracking list
Your tracking list is empty




NASA's NSSDC Master Catalog

Two Line Element Set (TLE):
1 55589U 23020W   26019.38239611 -.00000209  00000-0 -42393-6 0  9990
2 55589  43.0028 272.4418 0000708 268.5708  91.5054 15.02536844161505
Source of the keplerian elements: AFSPC